星链-35105(STARLINK-35105)

导读

STARLINK-35105是美国太空探索技术公司(SpaceX)星链(Starlink)项目中的一颗卫星,于2025年9月6日由猎鹰九号火箭从肯尼迪航天中心发射升空,属于Starlink 10-57任务批次,是本次任务携带的28颗星链V2 Mini卫星之一。星链项目旨在构建全球卫星互联网星座,为全球偏远地区等基础设施匮乏区域提供高速低延迟宽带互联网服务,该卫星入轨后将进一步拓展星链星座的全球覆盖能力与服务容量。

Basic Information
目录编号:
65543
目录名称:
STARLINK-35105
国际标识:
2025-200Z
轨道中心:
EARTH
卫星名称:
星链-35105
卫星全名:
星链-35105(STARLINK-35105)
卫星状态:
在轨 (已飞行364 天)
发射日期:
2025-09-06 UTC
国别 :
美国 (US)
星等 :
--
Orbit Information
数据来源 国际轨道数据
星历时间: 2026-09-05T12:24:48+0800
5小时前
查看轨道信息
半长轴: 6843.709km
偏心率: 0.0001123
轨道倾角: 97.285°
近地点辐角 94.680°
升交点赤经 314.785°
平近点角 265.457°
近地点: 464.803km
远地点: 466.341km
周期: 93.907分钟
每日圈数: 15.334356
Detailed Information
固有亮度:
5
最大亮度:
2.5
卫星平台:
Starlink V1.0
覆盖范围:
全球
运营商:
太空探索技术公司
运营商所在国:
美国
制造商(研发单位):
太空探索技术公司
制造商所在国:
美国
使用方式:
暂无
Satellite Introduction
Starlink 计划是 SpaceX 推出的全球卫星互联网项目,通过发射低轨道卫星,为全球尤其是偏远地区提供高速、低延迟的互联网服务。自 2019 年起,Starlink 已部署数千颗卫星,旨在缩小全球数字鸿沟,推动互联网普及。该项目还为军事、航空等行业提供通信支持,带来广泛经济效益。
2D Orbit Map
3D Orbit Map
Orbit Altitude Analysis Chart
Orbit Inclination Analysis Chart
Orbit Comprehensive Analysis Chart
View Comprehensive Chart
Conjunction Data List
Event ID Objects TCA Miss Dist (km) Collision Risk Probability Collision Risk Index (CRI) Action
CDM_260905-144106-388306-554321
2026-09-05T
14:41:04+0000
2.374 km
极远距离
1.963153E-6 低风险 0.41
CDM_260905-143106-041406-554322
2026-09-05T
14:31:34+0000
2.918 km
极远距离
1.381375E-6 低风险 0.38
CDM_260907-053404-855406-554321
2026-09-07T
05:34:07+0000
2.770 km
极远距离
1.026035E-6 低风险 0.35
CDM_260906-030004-608306-554322
2026-09-06T
03:00:12+0000
2.721 km
极远距离
9.522238E-7 极低风险 0.35
CDM_260906-110306-027406-554321
2026-09-06T
11:03:43+0000
2.946 km
极远距离
8.541047E-7 极低风险 0.34